Regional Weather Roundup
Issued by NWS Newport/Morehead, NC

Current Version | Previous Version | Graphics & Text | Print | Product List | Glossary On
Versions: 1 2 3 4 5 6 7 8 9 10 11 12 13 14 15 16 17 18 19 20 21 22 23 24 25 26 27 28 29 30 31 32 33 34 35 36 37 38 39 40 41 42 43 44 45 46 47 48 49 50
000 ASUS42 KMHX 212122 RWRMHX WEATHER ROUNDUP FOR EASTERN NORTH CAROLINA NATIONAL WEATHER SERVICE NEWPORT/MOREHEAD CITY NC 500 PM EDT THU AUG 21 2014 NOTE: "FAIR" INDICATES FEW OR NO CLOUDS BELOW 12,000 FEET WITH NO SIGNIFICANT WEATHER AND/OR OBSTRUCTIONS TO VISIBILITY NCZ015>017-031-032-045>047-102-103-212200- NORTH COAST CITY SKY/WX TMP DP RH WIND PRES REMARKS EDENTON PTSUNNY 87 73 62 CALM 30.00F ELIZABETH CITY PTSUNNY 89 70 53 NW5 30.00S KITTY HAWK PTCLDY 86 74 66 CALM 30.00S MANTEO MOSUNNY 84 77 79 S9 30.02S $$ NCZ045>047-081-094-103-104-212200- CENTRAL COAST CITY SKY/WX TMP DP RH WIND PRES REMARKS FRISCO PTSUNNY 82 77 84 SW7 30.02S SWANQUARTER N/A 88 N/A N/A S6 29.97S $$ NCZ095-097-098-100-101-212200- SOUTHERN COAST CITY SKY/WX TMP DP RH WIND PRES REMARKS BEAUFORT PTSUNNY 87 71 58 SW10 30.02R CEDAR ISLAND N/A 90 N/A N/A SW7 30.06S JACKSONVILLE PTSUNNY 90 75 61 SW9 30.00F HX 100 NEWPORT NOT AVBL PINEY ISLAND PTCLDY 88 73 61 SW6 30.01S WILMINGTON PTSUNNY 86 72 62 SW12 30.02S $$ NCZ011>013-027>030-043-044-078>080-089-090>093-098-212200- COASTAL PLAIN CITY SKY/WX TMP DP RH WIND PRES REMARKS AHOSKIE PTSUNNY 85 73 68 CALM 30.01S CLINTON MOSUNNY 92 73 53 N5 30.03S HX 100 ELIZABETHTOWN PTSUNNY 93 69 46 NW5 30.02S GOLDSBORO MOSUNNY 91 75 58 W12 30.00S HX 101 GREENVILLE MOSUNNY 90 73 58 N3 30.03S HAVELOCK PTSUNNY 85 71 63 S10 30.02S KENANSVILLE MOSUNNY 91 67 45 W6 30.03R KINSTON SUNNY 91 72 52 W3 30.03R NEW BERN PTSUNNY 93 72 50 SW6 30.02R HX 101 RICHLANDS MOSUNNY 93 70 46 W3 30.01S ROANOKE RAPIDS NOT AVBL ROCKY MOUNT MOSUNNY 91 70 49 W7 30.02S WASHINGTON PTSUNNY 89 72 56 CALM 30.01S WHITEVILLE PTSUNNY 84 72 66 S5 30.03S $$ AMZ130-135-150-152-154-156-158-170-250-252-270-ANZ085-086-088-633-658-670-212200- MARINE OBSERVATIONS STATION/POSITION TIME TEMP WIND PRES WAVE SWELL AIR SEA DIR/SP/G HT/PER HT/PER (UTC) (F) (DEG/KT/KT) (MB) (FT/S) (FT/S) CHESAPEAKE LIGHT 2100 78 90/ 6/ 6 1016.8 BUOY 44014 2100 79 79 100/ 6/ 8 1015.9 2/ 8 2/ 8 DUCK 2100 83 78 130/ 7/ 7 1015.5 2E DUCK 2100 N/A 2/ 7 OREGON INLET 2100 83 83 180/ 12/ 13 1016.4 BUOY 44095 2100 80 N/A 2/ 8 20E OREGON INLET NOT AVBL HATTERAS CG 2100 83 83 220/ 6/ 8 1017.0 DIAMOND BUOY 2100 81 200/ 8/ 10 1016.6 2/ 9 2/ 9 CAPE LOOKOUT 2100 83 210/ 5/ 7 1016.7 BEAUFORT LAB 2100 85 83 240/ 5/ 8 1016.2 30 SE NEW RIVER 2100 84 84 240/ 6/ 8 1016.4 2/ 5 2/ 5 5 SE WRIGHTSVILL 2100 81 83 260/ 14/ 16 N/A BUOY 41002 2037 81 83 250/ 8/ 8 1018.1 2/ 5 2/ 5 BUOY 41004 2100 84 85 260/ 6/ 8 1016.5 2/ 4 2/ 4 $$

USA.gov is the U.S. government's official web portal to all federal, state and local government web resources and services.